Home   Weather   Regensburg   Past weeks

Flag for Germany Past Weather in Regensburg, Bavaria, Germany — Yesterday and Last 2 Weeks

Now
57 °F

Sunny.


Feels Like: 57 °F
Forecast: 52 / 77 °F
Wind: 2 mph from Northeast

Location: Hohenfels

Current Time: Aug 31, 2016 at 10:11:59 AM

Latest Report: Aug 31, 2016 at 8:58 AM


Visibility: N/A

Pressure: 30.21 "Hg

Humidity: 72%

Dew Point: 48 °F

Location of RegensburgLocation

Past Weather in Regensburg — Graph

°F

Regensburg Temperature Yesterday

Maximum temperature yesterday: 73 °F (at 1:58 PM)
Minimum temperature yesterday: 54 °F (at 3:58 AM)
Average temperature yesterday: 63 °F

High & Low Weather Summary for the Past Weeks

 TemperatureHumidityPressure
High90 °F (Aug 28, 3:58 PM)100% (Aug 20, 3:58 AM)30.42 "Hg (Aug 20, 3:58 AM)
Low45 °F (Aug 18, 4:58 AM)29% (Aug 27, 2:58 PM)29.80 "Hg (Aug 18, 2:58 PM)
Average65 °F71%30.09 "Hg
* Reported Aug 16 8:58 AM — Aug 31 8:58 AM, Regensburg, Weather by CustomWeather, © 2016

Note: Actual official high and low records may vary slightly from our data, if they occured in-between our weather recording intervals... More about our weather records

Advertising

Regensburg Weather History for the Previous 24 Hours

Scroll right to see more
 ConditionsComfort  
Time TempWeatherWind HumidityBarometerVisibility
8:58 AM
Wed, Aug 31
57 °FSunny.2 mph72%30.21 "HgN/A
7:58 AM50 °FSunny.1 mph88%30.22 "HgN/A
6:58 AM46 °FClear.2 mph93%30.22 "HgN/A
5:58 AM48 °FClear.3 mph94%30.21 "HgN/A
4:58 AM48 °FClear.5 mph100%30.21 "HgN/A
3:58 AM50 °FClear.5 mph94%30.22 "HgN/A
2:58 AM52 °FClear.3 mph88%30.22 "HgN/A
1:58 AM52 °FClear.2 mph94%30.23 "HgN/A
12:58 AM54 °FClear.1 mph88%30.24 "HgN/A
11:58 PM
Tue, Aug 30
54 °FClear.2 mph88%30.24 "HgN/A
10:58 PM55 °FClear.5 mph88%30.24 "HgN/A
9:58 PM59 °FClear.1 mph72%30.24 "HgN/A
8:58 PM64 °FClear.5 mph64%30.23 "HgN/A
7:58 PM68 °FSunny.3 mph56%30.22 "HgN/A
6:58 PM72 °FSunny.7 mph50%30.20 "HgN/A
5:58 PM73 °FSunny.2 mph47%30.20 "HgN/A
4:58 PM73 °FPassing clouds.8 mph47%30.21 "HgN/A
3:58 PM73 °FSunny.7 mph50%30.23 "HgN/A
2:58 PM72 °FSunny.7 mph57%30.24 "HgN/A
1:58 PM73 °FBroken clouds.8 mph53%30.25 "HgN/A
12:58 PM72 °FSunny.6 mph57%30.26 "HgN/A
11:58 AM70 °FScattered clouds.6 mph60%30.26 "HgN/A
10:58 AM68 °FScattered clouds.6 mph64%30.27 "HgN/A
Weather by CustomWeather, © 2016

See weather overviewHow to use our weather pages